CW3699 Weather Reports


Display with metric or nautical units.
time (UTC)temp
F
wind
direction
speed
MPH
gust
MPH
rain 1hr
in
rain 24hr
in
rain mn
in
humidity
%
barometer
mb
20260904233415 67 59 0.0 2.0 0.00 0.03 0.03 94 1016.4
20260904232914 67 67 0.0 2.0 0.00 0.03 0.03 93 1016.4
20260904232414 67 109 0.0 1.0 0.00 0.03 0.03 93 1016.4
20260904231914 67 69 0.0 1.0 0.00 0.03 0.03 93 1016.5
20260904230914 67 66 0.0 2.0 0.00 0.03 0.03 93 1016.4
20260904230415 67 86 0.0 1.0 0.00 0.03 0.03 92 1016.4
20260904225915 67 63 0.0 2.0 0.00 0.03 0.03 93 1016.3
20260904224415 67 115 0.0 1.0 0.00 0.03 0.03 92 1016.2
20260904223929 67 76 0.0 2.0 0.00 0.03 0.03 93 1016.2
20260904223413 67 69 0.0 2.0 0.00 0.03 0.03 92 1016.2
20260904222429 67 91 0.0 1.0 0.00 0.03 0.03 92 1016.2
20260904221414 67 91 0.0 2.0 0.00 0.03 0.03 92 1016.2
20260904220914 67 87 0.0 2.0 0.00 0.03 0.03 91 1016.1
20260904220414 68 79 1.0 2.0 0.00 0.03 0.03 91 1016.0
20260904215414 67 50 0.0 2.0 0.00 0.03 0.03 91 1016.0
20260904214914 67 83 0.0 2.0 0.00 0.03 0.03 91 1015.9
20260904214414 67 120 0.0 2.0 0.00 0.03 0.03 91 1016.1
20260904211916 67 49 1.0 2.0 0.00 0.03 0.03 91 1016.1
20260904211416 67 79 0.0 2.0 0.00 0.03 0.03 92 1016.2
20260904210914 67 63 0.0 2.0 0.00 0.03 0.03 91 1016.1
20260904210416 67 72 0.0 1.0 0.00 0.03 0.03 91 1016.2
20260904205915 67 79 0.0 2.0 0.00 0.03 0.03 91 1016.2
20260904205414 67 82 0.0 2.0 0.00 0.03 0.03 91 1016.2
20260904204929 68 83 0.0 2.0 0.00 0.03 0.03 91 1016.0
20260904203916 68 86 0.0 2.0 0.00 0.03 0.03 91 1016.2
20260904202416 68 61 1.0 2.0 0.00 0.03 0.03 91 1016.2
20260904201919 68 64 1.0 3.0 0.00 0.03 0.03 90 1016.2
20260904201414 68 94 1.0 2.0 0.00 0.03 0.03 90 1016.1
20260904200914 68 77 1.0 2.0 0.00 0.03 0.03 90 1016.0
20260904200414 68 59 1.0 2.0 0.00 0.03 0.03 90 1016.0
20260904195915 68 56 1.0 3.0 0.00 0.03 0.03 90 1016.1
20260904195414 69 42 1.0 2.0 0.00 0.03 0.03 90 1016.1
20260904194914 68 75 1.0 2.0 0.00 0.03 0.03 90 1016.2
20260904194415 68 64 1.0 3.0 0.00 0.03 0.03 91 1016.2
20260904193914 68 138 1.0 2.0 0.00 0.03 0.03 91 1016.3
20260904192414 68 126 1.0 3.0 0.00 0.03 0.03 90 1016.3
20260904191914 68 39 1.0 3.0 0.00 0.03 0.03 91 1016.3
20260904190929 68 79 1.0 3.0 0.00 0.03 0.03 90 1016.1
20260904190428 68 100 1.0 3.0 0.00 0.03 0.03 90 1016.1
20260904185914 68 77 1.0 3.0 0.00 0.03 0.03 91 1016.2
20260904185415 68 136 1.0 3.0 0.00 0.03 0.03 91 1016.3
20260904184913 68 105 1.0 3.0 0.00 0.03 0.03 91 1016.2
20260904183915 67 53 1.0 3.0 0.00 0.03 0.03 91 1016.3
20260904183415 67 83 1.0 3.0 0.00 0.03 0.03 91 1016.5
20260904182914 67 42 1.0 2.0 0.00 0.03 0.03 91 1016.6
20260904182414 67 128 1.0 2.0 0.00 0.03 0.03 90 1016.7
20260904181914 67 147 1.0 2.0 0.00 0.03 0.03 91 1016.8
20260904180928 67 75 1.0 3.0 0.00 0.03 0.03 91 1016.5
20260904180414 67 78 1.0 3.0 0.00 0.03 0.03 91 1016.5
20260904175414 67 93 1.0 3.0 0.00 0.03 0.03 90 1016.5
20260904174914 67 122 1.0 3.0 0.00 0.03 0.03 90 1016.5
20260904173914 67 93 1.0 3.0 0.00 0.03 0.03 90 1016.7
20260904173414 67 48 1.0 2.0 0.00 0.03 0.03 90 1016.7
20260904172914 67 63 0.0 2.0 0.00 0.03 0.03 89 1016.9
20260904172417 67 104 0.0 3.0 0.00 0.03 0.03 89 1016.9
20260904171914 68 132 0.0 2.0 0.00 0.03 0.03 88 1016.9
20260904171414 68 106 1.0 2.0 0.00 0.03 0.03 88 1016.7
20260904170914 68 53 1.0 3.0 0.00 0.03 0.03 88 1016.7
20260904170414 68 109 1.0 2.0 0.00 0.03 0.03 87 1016.6
20260904165413 69 59 1.0 6.0 0.00 0.03 0.03 87 1016.4
20260904164914 69 51 1.0 3.0 0.00 0.03 0.03 89 1016.1
20260904163916 68 98 1.0 3.0 0.00 0.03 0.03 88 1016.0
20260904163414 68 69 1.0 3.0 0.00 0.03 0.03 88 1016.0
20260904162914 68 102 1.0 3.0 0.00 0.03 0.03 90 1016.2
20260904162414 68 105 1.0 3.0 0.00 0.03 0.03 92 1016.4
20260904161914 67 74 1.0 2.0 0.00 0.03 0.03 91 1016.5
20260904161414 67 39 1.0 2.0 0.00 0.03 0.03 91 1016.7
20260904160913 67 90 1.0 3.0 0.00 0.03 0.03 92 1016.7
20260904154914 67 105 0.0 2.0 0.00 0.03 0.03 91 1017.0
20260904154415 67 59 0.0 2.0 0.00 0.03 0.03 92 1017.0
20260904153928 67 107 0.0 2.0 0.00 0.03 0.03 93 1017.1
20260904153414 66 72 1.0 3.0 0.00 0.03 0.03 92 1017.0
20260904152414 66 82 0.0 2.0 0.00 0.03 0.03 94 1017.1
20260904151917 66 72 0.0 2.0 0.00 0.03 0.03 94 1017.1
20260904150913 66 110 0.0 2.0 0.00 0.03 0.03 95 1017.4
20260904150415 66 61 0.0 1.0 0.00 0.03 0.03 96 1017.5
20260904145914 66 60 1.0 2.0 0.00 0.03 0.03 96 1017.4
20260904145414 66 206 1.0 3.0 0.00 0.03 0.03 97 1017.1
20260904144916 66 76 1.0 2.0 0.00 0.03 0.03 97 1017.2
20260904144427 65 89 1.0 2.0 0.00 0.03 0.03 96 1017.2
20260904143928 65 41 1.0 2.0 0.00 0.03 0.03 97 1017.1
20260904143415 65 141 1.0 2.0 0.00 0.03 0.03 97 1017.1
20260904142915 66 126 1.0 2.0 0.00 0.03 0.03 97 1017.0
20260904142414 66 78 0.0 3.0 0.00 0.03 0.03 97 1016.8
20260904141914 66 109 1.0 2.0 0.00 0.03 0.03 97 1016.8
20260904140914 65 98 1.0 2.0 0.00 0.03 0.03 97 1016.9
20260904140415 65 143 1.0 2.0 0.00 0.03 0.03 98 1016.8
20260904135914 65 16 1.0 3.0 0.00 0.03 0.03 98 1016.6
20260904135428 65 107 1.0 2.0 0.00 0.03 0.03 98 1016.8
20260904134928 65 20 1.0 2.0 0.00 0.03 0.03 98 1016.7
20260904134414 64 108 1.0 2.0 0.00 0.03 0.03 97 1016.7
20260904133913 64 106 1.0 3.0 0.00 0.03 0.03 98 1016.6
20260904133428 64 131 1.0 2.0 0.00 0.03 0.03 98 1016.5
20260904131914 64 113 1.0 2.0 0.00 0.03 0.03 97 1016.1
20260904131417 64 142 1.0 3.0 0.00 0.03 0.03 97 1016.1
20260904130913 63 113 1.0 2.0 0.00 0.03 0.03 97 1016.1
20260904130414 63 201 1.0 2.0 0.00 0.03 0.03 97 1015.9
20260904125428 63 160 1.0 2.0 0.00 0.03 0.03 97 1016.0
20260904124914 63 149 1.0 2.0 0.00 0.03 0.03 97 1016.3
20260904124416 63 175 1.0 2.0 0.00 0.03 0.03 97 1016.3
20260904123928 62 168 1.0 2.0 0.00 0.03 0.03 97 1016.3
20260904122913 62 132 0.0 2.0 0.01 0.03 0.03 97 1016.6
20260904122413 62 106 0.0 1.0 0.01 0.03 0.03 97 1016.5
20260904121914 62 72 0.0 1.0 0.01 0.03 0.03 97 1016.2
20260904121428 62 142 0.0 1.0 0.02 0.03 0.03 97 1015.8
20260904120914 62 125 0.0 2.0 0.03 0.03 0.03 97 1015.8
20260904120413 62 95 0.0 2.0 0.03 0.03 0.03 97 1015.8
20260904115914 61 137 0.0 2.0 0.03 0.03 0.03 97 1015.8
20260904115413 61 109 0.0 1.0 0.03 0.03 0.03 97 1016.0
20260904114914 61 142 0.0 2.0 0.03 0.03 0.03 97 1015.8
20260904114413 61 144 0.0 2.0 0.03 0.03 0.03 97 1016.1
20260904113414 61 149 0.0 2.0 0.02 0.02 0.02 96 1015.8
20260904112417 60 134 1.0 1.0 0.02 0.02 0.02 96 1016.7
20260904111914 60 146 0.0 1.0 0.02 0.02 0.02 96 1016.7
20260904111413 60 159 0.0 2.0 0.01 0.01 0.01 96 1016.7
20260904110914 60 149 0.0 1.0 0.00 0.00 0.00 96 1016.7
20260904105917 60 136 0.0 2.0 0.00 0.00 0.00 96 1016.9
20260904105415 60 157 0.0 1.0 0.00 0.00 0.00 96 1016.9
20260904104414 60 125 0.0 1.0 0.00 0.00 0.00 96 1016.8
20260904103414 60 152 0.0 1.0 0.00 0.00 0.00 96 1016.5
20260904102916 60 131 0.0 1.0 0.00 0.00 0.00 96 1016.4
20260904101914 60 132 0.0 1.0 0.00 0.00 0.00 96 1016.3
20260904101414 60 178 0.0 1.0 0.00 0.00 0.00 96 1016.2
20260904095914 60 148 0.0 1.0 0.00 0.00 0.00 96 1016.0
20260904095413 60 182 0.0 1.0 0.00 0.00 0.00 96 1016.0
20260904094913 60 139 0.0 1.0 0.00 0.00 0.00 96 1016.0
20260904094414 60 138 0.0 1.0 0.00 0.00 0.00 96 1015.9
20260904093913 60 147 0.0 1.0 0.00 0.00 0.00 96 1016.0
20260904093413 61 160 0.0 1.0 0.00 0.00 0.00 96 1015.9
20260904092413 61 140 0.0 1.0 0.00 0.00 0.00 96 1015.7
20260904091915 61 118 0.0 1.0 0.00 0.00 0.00 97 1015.6
20260904091429 60 140 0.0 1.0 0.00 0.00 0.00 96 1015.4
20260904090914 61 132 0.0 2.0 0.00 0.00 0.00 96 1015.5
20260904090414 61 137 0.0 2.0 0.00 0.00 0.00 97 1015.7
20260904085913 61 153 0.0 1.0 0.00 0.00 0.00 97 1015.6
20260904085413 60 127 0.0 1.0 0.00 0.00 0.00 97 1015.4
20260904084414 60 126 0.0 1.0 0.00 0.00 0.00 96 1015.3
20260904083913 60 121 0.0 1.0 0.00 0.00 0.00 96 1015.5
20260904083414 60 112 0.0 1.0 0.00 0.00 0.00 96 1015.7
20260904082913 60 151 0.0 1.0 0.00 0.00 0.00 96 1015.7
20260904081929 60 138 0.0 2.0 0.00 0.00 0.00 96 1015.7
20260904081413 59 129 0.0 1.0 0.00 0.00 0.00 96 1015.6
20260904080914 59 94 0.0 0.0 0.00 0.00 0.00 96 1015.6
20260904080414 59 90 0.0 1.0 0.00 0.00 0.00 96 1015.6
20260904074914 59 146 0.0 1.0 0.00 0.00 0.00 95 1015.5
20260904073913 59 141 0.0 1.0 0.00 0.00 0.00 96 1015.8
20260904073414 59 126 0.0 1.0 0.00 0.00 0.00 96 1015.9
20260904072915 59 142 0.0 1.0 0.00 0.00 0.00 96 1015.6
20260904072413 59 92 0.0 2.0 0.00 0.00 0.00 96 1015.5
20260904071913 59 167 0.0 2.0 0.00 0.00 0.00 95 1015.4
20260904071414 59 89 0.0 1.0 0.00 0.00 0.00 95 1015.4
20260904070914 58 134 0.0 1.0 0.00 0.00 0.00 95 1015.5
20260904065928 58 140 0.0 1.0 0.00 0.00 0.00 94 1015.6
20260904065414 58 120 0.0 1.0 0.00 0.00 0.00 94 1015.7
20260904063915 58 150 0.0 1.0 0.00 0.00 0.00 93 1015.8
20260904062912 59 144 0.0 1.0 0.00 0.00 0.00 93 1016.2
20260904061413 59 138 0.0 1.0 0.00 0.00 0.00 93 1016.4
20260904060914 59 146 0.0 1.0 0.00 0.00 0.00 93 1016.4
20260904060414 59 161 0.0 1.0 0.00 0.00 0.00 93 1016.4
20260904055414 59 163 0.0 1.0 0.00 0.00 0.00 93 1016.3
20260904054914 59 176 1.0 2.0 0.00 0.00 0.00 92 1016.3
20260904054414 59 153 0.0 2.0 0.00 0.00 0.00 92 1016.4
20260904053914 59 150 1.0 2.0 0.00 0.00 0.00 92 1016.4
20260904053413 59 156 0.0 1.0 0.00 0.00 0.00 92 1016.5
20260904052414 59 148 0.0 1.0 0.00 0.00 0.00 91 1016.6
20260904051915 59 163 0.0 1.0 0.00 0.00 0.00 91 1016.4
20260904051416 59 159 0.0 1.0 0.00 0.00 0.00 91 1016.5
20260904050914 59 162 0.0 2.0 0.00 0.00 0.00 91 1016.5
20260904050427 59 164 0.0 1.0 0.00 0.00 0.00 91 1016.6
20260904045414 60 166 0.0 1.0 0.00 0.00 0.00 91 1016.5
20260904044413 60 158 0.0 1.0 0.00 0.00 0.00 90 1016.4
20260904043913 60 164 0.0 1.0 0.00 0.00 0.00 90 1016.5
20260904043431 60 176 0.0 1.0 0.00 0.00 0.00 90 1016.5
20260904042914 60 170 0.0 1.0 0.00 0.00 0.00 90 1016.5
20260904042413 60 181 0.0 2.0 0.00 0.00 0.00 90 1016.6
20260904041927 60 166 0.0 1.0 0.00 0.00 0.00 90 1016.6
20260904041413 60 176 0.0 1.0 0.00 0.00 0.00 90 1016.5
20260904040912 60 181 0.0 1.0 0.00 0.00 0.00 89 1016.5
20260904035913 60 165 0.0 1.0 0.00 0.00 0.00 89 1016.4
20260904035413 60 172 0.0 2.0 0.00 0.00 0.00 89 1016.4
20260904034913 61 172 0.0 1.0 0.00 0.00 0.00 89 1016.4
20260904034414 61 178 1.0 2.0 0.00 0.00 0.00 88 1016.3
20260904033913 61 178 0.0 1.0 0.00 0.00 0.00 88 1016.2
20260904033416 61 170 1.0 2.0 0.00 0.00 0.00 88 1016.2
20260904032913 61 167 0.0 1.0 0.00 0.00 0.00 88 1016.2
20260904032415 61 168 0.0 1.0 0.00 0.00 0.00 88 1016.1
20260904031914 61 180 0.0 1.0 0.00 0.00 0.00 88 1016.0
20260904031413 62 162 0.0 2.0 0.00 0.00 0.00 88 1016.0
20260904030916 62 139 0.0 1.0 0.00 0.00 0.00 87 1016.1
20260904030414 62 161 0.0 1.0 0.00 0.00 0.00 88 1016.1
20260904025915 62 133 1.0 2.0 0.00 0.00 0.00 88 1016.1
20260904025413 62 155 0.0 2.0 0.00 0.00 0.00 87 1016.1
20260904024917 62 148 0.0 1.0 0.00 0.00 0.00 87 1016.0
20260904024413 62 139 0.0 1.0 0.00 0.00 0.00 87 1016.0
20260904023914 63 159 1.0 2.0 0.00 0.00 0.00 87 1016.2
20260904022922 63 136 1.0 1.0 0.00 0.00 0.00 87 1016.0
20260904022415 63 52 0.0 1.0 0.00 0.00 0.00 87 1016.0
20260904021429 63 151 1.0 2.0 0.00 0.00 0.00 86 1016.0
20260904020916 63 155 1.0 2.0 0.00 0.00 0.00 86 1015.9
20260904020413 63 151 1.0 1.0 0.00 0.00 0.00 86 1015.8
20260904015916 63 160 0.0 1.0 0.00 0.00 0.00 86 1015.8
20260904015417 63 145 0.0 1.0 0.00 0.00 0.00 86 1015.8
20260904014913 63 156 0.0 1.0 0.00 0.00 0.00 86 1015.7
20260904013913 64 156 0.0 1.0 0.00 0.00 0.00 85 1015.6
20260904013430 64 144 0.0 1.0 0.00 0.00 0.00 85 1015.7
20260904012913 64 152 0.0 2.0 0.00 0.00 0.00 85 1015.6
20260904012416 64 157 0.0 2.0 0.00 0.00 0.00 85 1015.5
20260904011413 64 126 0.0 1.0 0.00 0.00 0.00 84 1015.4
20260904010915 64 165 0.0 1.0 0.00 0.00 0.00 84 1015.3
20260904010413 65 154 0.0 1.0 0.00 0.00 0.00 84 1015.3
20260904005913 65 150 0.0 1.0 0.00 0.00 0.00 84 1015.2
20260904005413 65 155 0.0 1.0 0.00 0.00 0.00 84 1015.2
20260904004913 65 151 0.0 1.0 0.00 0.00 0.00 84 1015.2
20260904003913 66 134 0.0 1.0 0.00 0.00 0.00 84 1015.1
20260904003414 66 155 0.0 1.0 0.00 0.00 0.00 84 1015.1
20260904002913 66 159 0.0 1.0 0.00 0.00 0.00 84 1015.0
20260904001928 67 135 0.0 1.0 0.00 0.00 0.00 84 1015.0
20260904001413 67 149 0.0 1.0 0.00 0.00 0.00 84 1015.0
20260904000913 68 141 0.0 2.0 0.00 0.00 0.00 83 1015.0
20260904000413 68 134 0.0 1.0 0.00 0.00 0.00 83 1014.9
20260903235914 68 121 0.0 2.0 0.00 0.00 0.00 82 1014.9
20260903235416 68 168 0.0 1.0 0.00 0.00 0.00 82 1014.8
20260903234929 68 168 0.0 2.0 0.00 0.00 0.00 81 1014.7
20260903234413 69 147 0.0 2.0 0.00 0.00 0.00 82 1014.7
20260903233927 69 152 0.0 2.0 0.00 0.00 0.00 82 1014.7